Location: Barcelona
(41.3830°N, 2.1830°E)
Time: 20:56:32
(UTC+01:00)

ISS - Pass Details

Date: 23 February 2021
Orbit: 417 x 422 km, 51.6° (Epoch: 26 February)

Event Time Altitude Azimuth Distance (km) Brightness Sun altitude
Exits shadow 04:47:54 10° 90° (E) 1,467 -0.2 -31.8°
Drops below altitude 10° 04:48:01 10° 88° (E) 1,501 -0.1 -31.8°
Sets 04:50:34 0° 68° (ENE) 2,361 1.2 -31.4°
